323P/SOHO (2012)

Japanese version
Home page
Updated on June 14, 2015

---------------------------------------------------------------------

* Profile

Designation 323P/2012 Q2

* Orbital Elements

Epoch 2012 Aug. 21.0 TT = JDT 2456160.5
T 2012 Aug. 20.16460 TT                                 MPCW
q   0.0484802            (2000.0)            P               Q
n   0.23346412     Peri.  353.07839     +0.73470165     +0.67549910
a   2.6120969      Node   324.16950     -0.61717540     +0.62727109
e   0.9814401      Incl.    6.13542     -0.28161680     +0.38759767
P   4.22
From 47 observations 1999 Dec. 12-2012 Aug. 20.

* Magnitudes Graph

        m1 = 20 + 5 log d + 10 log r

---------------------------------------------------------------------

The orbital elements are published on M.P.E.C. 2015-K01.
The magnitudes graphs are made with Comet for Windows.

---------------------------------------------------------------------

Copyright(C) Seiichi Yoshida (comet@aerith.net). All rights reserved.